[[{"header":{"parameterUnit":"m.s-1","parameterCategory":1,"la1":30.2991,"la2":30.254,"lo1":-89.0895,"lo2":-89.0444,"dx":0.0017,"dy":0.0017,"nx":28,"ny":28,"refTime":"2022-12-18T15:00:00:Z","depth":0,"parameterNumber":2,"parameterNumberName":"U-component_of_WINDS"},"data":[0,0,0,0,0,0,0,0,0,0,0,0,0,0,0,0,0,0,0,0,0,0,0,0,0,0,0,0,0,0,0,0,0,0,0,0,0,0,0,0,0,0,0,0,0,0,0,0,0,0,0,0,0,0,0,0,0,0,-9.3839,-9.384,0,-9.3909,-9.391,-9.3911,-9.366,-9.3653,-9.3645,-9.3638,-9.3713,-9.3721,-9.373,0,0,0,0,0,0,0,0,0,0,0,0,0,-9.349,-9.3498,-9.3839,-9.384,-9.3841,-9.3909,-9.391,-9.3911,-9.3662,-9.3653,-9.3643,-9.3635,-9.371,-9.372,-9.3731,0,0,0,0,0,0,0,0,0,0,0,0,0,-9.361,-9.3501,-9.3839,-9.3725,-9.3715,-9.3909,-9.391,-9.3911,-9.3664,-9.3652,-9.3641,-9.3631,-9.3706,-9.3719,-9.3732,-9.4041,0,0,-9.3774,-9.3779,0,0,0,0,0,0,0,0,-9.3603,-9.3623,-9.3741,-9.3733,-9.3722,-9.3764,-9.3814,-9.3955,-9.3666,-9.3683,-9.3638,-9.3625,-9.3739,-9.3749,-9.3787,-9.4044,-9.4048,-9.3775,-9.3783,-9.3789,-9.3793,0,0,0,0,0,0,0,-9.3595,-9.3618,-9.3867,-9.3743,-9.3732,-9.367,-9.3675,-9.384,-9.3774,-9.3681,-9.3663,-9.3674,-9.3732,-9.3775,-9.3787,-9.4049,-9.3774,-9.3786,-9.3795,-9.38,-9.4561,-9.4573,0,0,0,0,0,0,-9.3602,-9.3613,-9.3865,-9.3869,-9.3634,-9.3686,-9.3691,-9.3763,-9.3771,-9.3761,-9.3684,-9.3663,-9.3757,-9.3772,-9.3789,-9.4149,-9.3789,-9.3801,-9.3809,-9.4549,-9.4564,-9.4577,0,0,0,0,0,0,-9.3595,-9.3627,-9.3862,-9.3736,-9.3761,-9.3704,-9.3786,-9.377,-9.3812,-9.3773,-9.376,-9.374,-9.3749,-9.377,-9.398,-9.4149,-9.3807,-9.382,-9.4535,-9.4554,-9.4571,-9.4875,0,0,0,0,0,0,-9.3586,-9.3626,-9.3742,-9.3741,-9.3769,-9.4052,-9.3797,-9.3779,-9.3836,-9.3808,-9.3822,-9.3814,-9.3742,-9.3961,-9.3993,-9.4161,-9.383,-9.452,-9.4543,-9.4565,-9.485,-9.4901,-9.4946,0,0,0,0,0,-9.3575,-9.3826,-9.3749,-9.3781,-9.3913,-9.4063,-9.4079,-9.399,-9.385,-9.3967,-9.3942,-9.3813,-9.4125,-9.3985,-9.4019,-9.4193,-9.4508,-9.4537,-9.4563,-9.4828,-9.4891,-9.4945,0,0,0,0,0,0,-9.3849,-9.3823,-9.3738,-9.3996,-9.4034,-9.402,-9.4164,-9.406,-9.4138,-9.4109,-9.3996,-9.4002,-9.4232,-9.4233,-9.4077,-9.4492,-9.4293,-9.4328,-9.4482,-9.4542,-9.4589,-9.4584,-9.3841,0,0,0,0,0,-9.394,-9.4063,-9.4033,-9.4264,-9.4287,-9.4224,-9.4285,-9.4213,-9.4247,-9.4262,-9.4252,-9.4291,-9.4397,-9.4469,-9.4565,-9.4848,-9.4848,-9.4985,-9.5033,-9.5073,-9.5105,-9.5254,-9.5315,-9.4667,-9.4667,-9.4666,0,0,-9.4129,-9.4129,-9.4214,-9.4319,-9.4339,-9.447,-9.4238,-9.4386,-9.4481,-9.4284,-9.4481,-9.4477,-9.4512,-9.476,-9.4869,-9.4768,-9.5284,-9.5108,-9.514,-9.515,-9.5289,-9.535,-9.5405,-9.4685,-9.4682,-9.4679,0,0,-9.4538,-9.4552,-9.4744,-9.4769,-9.4803,-9.4758,-9.4805,-9.4808,-9.4796,-9.4992,-9.4847,-9.4959,-9.5145,-9.5176,-9.5216,-9.5638,-9.5523,-9.5672,-9.5924,-9.607,-9.6121,-9.6166,-9.6316,-9.6372,-9.5704,-9.5705,-9.5706,0,-9.4768,-9.4958,-9.4857,-9.5015,-9.5065,-9.4892,-9.5087,-9.5116,-9.518,-9.5219,-9.5105,-9.5334,-9.5346,-9.5598,-9.5701,-9.574,-9.579,-9.567,-9.6122,-9.6166,-9.6206,-9.6348,-9.6405,-9.5723,-9.5721,-9.5719,-9.5718,0,-9.5239,-9.5373,-9.5525,-9.559,-9.5657,-9.5833,-9.5759,-9.584,-9.5763,-9.5731,-9.5933,-9.5941,-9.6035,-9.6089,-9.6016,-9.6332,-9.6268,-9.6141,-9.5939,-9.6288,-9.6419,-9.6473,-9.5749,-9.5742,-9.5737,-9.5733,0,0,-9.5824,-9.583,-9.5888,-9.5915,-9.5939,-9.6041,-9.6209,-9.6299,-9.6371,-9.6421,-9.6558,-9.6719,-9.6601,-9.6647,-9.6575,-9.6705,-9.7038,-9.656,-9.6559,-9.6648,-9.7386,-9.7482,-9.7547,-9.6961,-9.6971,-9.6979,-9.7383,0,-9.6226,-9.6512,-9.6426,-9.6714,-9.6836,-9.6674,-9.682,-9.6851,-9.6826,-9.6926,-9.6898,-9.7014,-9.6849,-9.6875,-9.6996,-9.6972,-9.7184,-9.6941,-9.7088,-9.7095,-9.7084,-9.7615,-9.7717,-9.8098,-9.7434,-9.7442,-9.7449,0,-9.6733,-9.6802,-9.7103,-9.7105,-9.7153,-9.7286,-9.7362,-9.746,-9.7492,-9.7464,-9.7517,-9.7418,-9.7583,-9.738,-9.7606,-9.7443,-9.7498,-9.7495,-9.7508,-9.7518,-9.7293,-9.764,-9.8217,-9.8275,-9.7529,-9.7522,-9.7516,0,-9.713,-9.7298,-9.7498,-9.7527,-9.7535,-9.7632,-9.7641,-9.7661,-9.7721,-9.7788,-9.7826,-9.7912,-9.796,-9.8029,-9.7956,-9.7816,-9.8193,-9.7985,-9.8175,-9.8178,-9.8262,-9.8258,-9.8857,-9.8299,-9.8298,-9.8297,-9.8296,0,-9.7587,-9.7778,-9.7676,-9.78,-9.8008,-9.7908,-9.8117,-9.8106,-9.8126,-9.8245,-9.811,-9.8225,-9.8122,-9.8229,-9.8173,-9.8368,-9.8391,-9.8373,-9.8356,-9.8385,-9.8388,-9.842,-9.8391,-9.8312,-9.8309,-9.8306,-9.8303,0,-9.8065,-9.8005,-9.8213,-9.8204,-9.8206,-9.836,-9.8352,-9.8466,-9.8431,-9.8584,-9.8614,-9.8559,-9.8677,-9.8611,-9.8732,-9.8695,-9.8948,-9.8895,-9.8938,-9.8923,-9.9117,-9.91,-9.9758,-9.9839,-9.923,-9.9236,-9.9241,0,-9.8361,-9.8503,-9.8509,-9.8579,-9.8596,-9.871,-9.877,-9.8677,-9.8746,-9.8792,-9.8902,-9.9007,-9.9086,-9.9282,-9.9254,-9.9346,-9.9293,-9.9518,-9.9306,-9.9331,-9.9296,-9.9289,-9.9302,-9.956,-9.9567,-9.9573,-9.9578,0,-9.8892,-9.8855,-9.8947,-9.903,-9.9105,-9.9166,-9.9215,-9.928,-9.9187,-9.9272,-9.9389,-9.9451,-9.9574,-9.9681,-9.976,-9.9768,-9.9659,-9.9645,-9.9693,-9.9725,-9.9743,-9.9735,-9.9053,-9.963,-9.9625,-9.9621,-9.9618,-9.9616,-9.9287,-9.9406,-9.9428,-9.9535,-9.9562,-9.9611,-9.9718,-9.9696,-9.9793,-9.9885,-9.9824,-9.9964,-9.9991,-10.0085,-10.0108,-10.0216,-10.0126,-10.0197,-10.0214,-10.0233,-10.026,-9.9727,-10.023,-10.0228,-10.0227,-10.0225,-10.0224,0,-9.9811,-9.9817,-9.9917,-9.9989,-10.0074,-9.9962,-10.0011,-10.0089,-10.0213,-10.0248,-10.0329,-10.0465,-10.0567,-10.0547,-10.064,-10.0731,-10.0683,-10.0758,-10.075,-10.0754,-10.0335,-10.0283,-10.0795,-10.0795,-10.0795,-10.0795,-10.0795,-10.0795,-10.0093,-10.0288,-10.0254,-10.0461,-10.0465,-10.06,-10.0637,-10.0682,-10.0709,-10.0866,-10.0951,-10.0936,-10.0949,-10.1042,-10.1132,-10.1123,-10.1163,-10.1258,-10.1231,-10.084,-10.0784,-10.073,-10.068,-10.1267,-10.1268,-10.164,-10.1644,-10.1647]},{"header":{"parameterUnit":"m.s-1","parameterCategory":1,"la1":30.2991,"la2":30.254,"lo1":-89.0895,"lo2":-89.0444,"dx":0.0017,"dy":0.0017,"nx":28,"ny":28,"refTime":"2022-12-18T15:00:00:Z","depth":0,"parameterNumber":3,"parameterNumberName":"V-component_of_WINDS"},"data":[0,0,0,0,0,0,0,0,0,0,0,0,0,0,0,0,0,0,0,0,0,0,0,0,0,0,0,0,0,0,0,0,0,0,0,0,0,0,0,0,0,0,0,0,0,0,0,0,0,0,0,0,0,0,0,0,0,0,-2.1287,-2.1288,0,-2.1346,-2.1346,-2.1347,-2.1391,-2.1392,-2.1392,-2.1393,-2.1449,-2.145,-2.1451,0,0,0,0,0,0,0,0,0,0,0,0,0,-2.1209,-2.1211,-2.1287,-2.1288,-2.1289,-2.1345,-2.1346,-2.1347,-2.1391,-2.1392,-2.1392,-2.1393,-2.1448,-2.145,-2.1451,0,0,0,0,0,0,0,0,0,0,0,0,0,-2.1253,-2.1211,-2.1287,-2.1318,-2.1321,-2.1345,-2.1346,-2.1347,-2.1391,-2.1392,-2.1392,-2.1393,-2.1448,-2.145,-2.1451,-2.1449,0,0,-2.1456,-2.1457,0,0,0,0,0,0,0,0,-2.125,-2.1256,-2.1312,-2.1316,-2.1319,-2.1362,-2.134,-2.1381,-2.1391,-2.1364,-2.1393,-2.1393,-2.1419,-2.1423,-2.1433,-2.1452,-2.1454,-2.1457,-2.1458,-2.1458,-2.1459,0,0,0,0,0,0,0,-2.1247,-2.1253,-2.131,-2.1313,-2.1317,-2.1327,-2.1334,-2.1348,-2.1387,-2.1367,-2.137,-2.1377,-2.1421,-2.1431,-2.1434,-2.1455,-2.1456,-2.1458,-2.1459,-2.146,-2.1472,-2.1471,0,0,0,0,0,0,-2.124,-2.1251,-2.1308,-2.1312,-2.1286,-2.1328,-2.1335,-2.1348,-2.1387,-2.1394,-2.1376,-2.1378,-2.1428,-2.1432,-2.1436,-2.1435,-2.1458,-2.146,-2.1461,-2.1472,-2.1472,-2.1471,0,0,0,0,0,0,-2.1238,-2.1245,-2.1306,-2.1282,-2.1291,-2.1328,-2.1342,-2.1348,-2.1358,-2.1394,-2.1401,-2.1379,-2.1429,-2.1434,-2.1445,-2.1437,-2.1461,-2.1462,-2.1473,-2.1472,-2.1471,-2.1432,0,0,0,0,0,0,-2.1236,-2.1244,-2.1245,-2.1282,-2.1292,-2.1315,-2.1341,-2.1349,-2.1361,-2.1365,-2.1399,-2.1405,-2.1429,-2.1442,-2.1447,-2.144,-2.1463,-2.1474,-2.1473,-2.1472,-2.1434,-2.143,-2.1426,0,0,0,0,0,-2.1233,-2.1231,-2.1245,-2.1251,-2.1294,-2.1315,-2.132,-2.1349,-2.1361,-2.1361,-2.1384,-2.1404,-2.1438,-2.1443,-2.1448,-2.1442,-2.1475,-2.1473,-2.1472,-2.1436,-2.143,-2.1426,0,0,0,0,0,0,-2.1191,-2.1237,-2.1252,-2.1263,-2.1284,-2.1322,-2.1323,-2.1343,-2.1361,-2.1364,-2.1397,-2.1405,-2.1411,-2.1428,-2.1433,-2.144,-2.1459,-2.1458,-2.1429,-2.1425,-2.1421,-2.1416,-2.1465,0,0,0,0,0,-2.1184,-2.1198,-2.1236,-2.1242,-2.1252,-2.1285,-2.1296,-2.1316,-2.1339,-2.1349,-2.1372,-2.1393,-2.1408,-2.1418,-2.1434,-2.1437,-2.1443,-2.1435,-2.143,-2.1427,-2.1426,-2.1426,-2.1422,-2.1466,-2.1466,-2.1466,0,0,-2.1167,-2.1194,-2.1201,-2.1234,-2.1253,-2.1266,-2.1293,-2.1306,-2.1314,-2.135,-2.1362,-2.138,-2.1405,-2.1412,-2.1416,-2.1426,-2.1415,-2.1425,-2.1422,-2.1423,-2.1424,-2.142,-2.1416,-2.1465,-2.1465,-2.1465,0,0,-2.1144,-2.1166,-2.1172,-2.1191,-2.122,-2.1242,-2.1243,-2.1278,-2.1291,-2.1303,-2.133,-2.134,-2.1366,-2.1382,-2.1394,-2.1374,-2.1393,-2.1378,-2.1357,-2.1357,-2.1353,-2.135,-2.1341,-2.1338,-2.1377,-2.1377,-2.1377,0,-2.112,-2.1141,-2.1173,-2.1183,-2.1196,-2.1229,-2.1234,-2.125,-2.1282,-2.129,-2.1301,-2.1332,-2.1352,-2.1361,-2.1356,-2.1365,-2.1366,-2.1374,-2.1351,-2.1349,-2.1346,-2.1338,-2.1335,-2.1375,-2.1375,-2.1375,-2.1376,0,-2.1109,-2.1123,-2.1124,-2.1154,-2.1167,-2.1175,-2.1206,-2.1215,-2.1233,-2.1253,-2.1264,-2.1288,-2.1309,-2.1313,-2.1331,-2.1324,-2.1329,-2.1345,-2.1364,-2.134,-2.1332,-2.133,-2.1372,-2.1373,-2.1373,-2.1374,0,0,-2.1062,-2.1109,-2.1108,-2.1121,-2.1155,-2.1165,-2.1173,-2.1194,-2.12,-2.1221,-2.1227,-2.1247,-2.1261,-2.1274,-2.1294,-2.1295,-2.1275,-2.131,-2.1311,-2.1301,-2.1266,-2.1253,-2.1249,-2.1288,-2.1287,-2.1287,-2.1263,0,-2.1043,-2.106,-2.1088,-2.1095,-2.1107,-2.1138,-2.1144,-2.1164,-2.1183,-2.1194,-2.1214,-2.1227,-2.1247,-2.1254,-2.1256,-2.1277,-2.1268,-2.1279,-2.1292,-2.1292,-2.1283,-2.1245,-2.1232,-2.1208,-2.1261,-2.126,-2.126,0,-2.1023,-2.1042,-2.105,-2.1081,-2.1087,-2.1092,-2.1112,-2.1123,-2.1146,-2.1159,-2.1172,-2.1194,-2.1202,-2.1219,-2.1229,-2.1236,-2.1243,-2.1254,-2.1253,-2.1255,-2.1274,-2.1244,-2.1202,-2.1198,-2.1256,-2.1257,-2.1257,0,-2.0985,-2.1013,-2.1021,-2.1032,-2.1068,-2.107,-2.1085,-2.1109,-2.1118,-2.1135,-2.1141,-2.1159,-2.1168,-2.118,-2.1205,-2.1215,-2.1211,-2.1231,-2.122,-2.122,-2.1217,-2.1217,-2.1174,-2.1224,-2.1224,-2.1224,-2.1224,0,-2.096,-2.0964,-2.1004,-2.1009,-2.1013,-2.1044,-2.1047,-2.1064,-2.1084,-2.1092,-2.1119,-2.1125,-2.1158,-2.1168,-2.1187,-2.1191,-2.1195,-2.1205,-2.121,-2.1202,-2.12,-2.1206,-2.1207,-2.1223,-2.1223,-2.1224,-2.1224,0,-2.0919,-2.0947,-2.0957,-2.099,-2.0998,-2.1,-2.1027,-2.1032,-2.1052,-2.106,-2.1064,-2.1094,-2.1106,-2.1133,-2.1152,-2.1165,-2.1163,-2.1173,-2.1156,-2.1159,-2.1146,-2.1146,-2.1104,-2.1099,-2.1153,-2.1152,-2.1152,0,-2.0901,-2.0905,-2.0937,-2.0944,-2.0958,-2.097,-2.098,-2.1009,-2.1018,-2.1042,-2.1044,-2.1058,-2.1071,-2.1089,-2.1111,-2.1125,-2.1135,-2.1119,-2.1137,-2.1128,-2.1132,-2.1131,-2.1131,-2.1115,-2.1114,-2.1113,-2.1113,0,-2.0865,-2.0878,-2.0892,-2.0909,-2.092,-2.0936,-2.0952,-2.0956,-2.0989,-2.0997,-2.101,-2.102,-2.1039,-2.1052,-2.107,-2.1083,-2.1103,-2.1107,-2.1105,-2.1096,-2.1085,-2.1089,-2.1143,-2.1108,-2.1108,-2.1109,-2.1109,-2.1109,-2.0834,-2.0837,-2.086,-2.0874,-2.0889,-2.0904,-2.0909,-2.0929,-2.0941,-2.0959,-2.0975,-2.0986,-2.1006,-2.1031,-2.1043,-2.1051,-2.1061,-2.1058,-2.1057,-2.1056,-2.1051,-2.1085,-2.1054,-2.1054,-2.1054,-2.1055,-2.1055,0,-2.0798,-2.0813,-2.0826,-2.0848,-2.0858,-2.0876,-2.0895,-2.0901,-2.091,-2.0928,-2.094,-2.0953,-2.0965,-2.0988,-2.1002,-2.1004,-2.1013,-2.1006,-2.1005,-2.1008,-2.1043,-2.1042,-2.0998,-2.0998,-2.0998,-2.0998,-2.0998,-2.0998,-2.078,-2.0786,-2.0801,-2.0814,-2.083,-2.0841,-2.0849,-2.0862,-2.0876,-2.0889,-2.09,-2.0915,-2.0934,-2.0949,-2.096,-2.0967,-2.097,-2.096,-2.0969,-2.1,-2.1006,-2.1011,-2.101,-2.0961,-2.0961,-2.0933,-2.0933,-2.0933]}]]